sat.trackr.live / text

‹ back to catalog

KUIPER-00593

NORAD 69278 · 2026-118M

PAYLOAD ACTIVE UNKNOWN

§ Identity

Operator
Country
US
Launch date
2026-05-29
Launch site
AFETR
Launch vehicle
Mass (kg)
RCS (m²)

External: N2YO · Heavens-Above · Gunter

§ Orbital elements

Epoch: 2026-09-20T03:43:24.268800Z

Period
97.30 min
Inclination
51.9013°
Eccentricity
0.0001293
Mean motion
14.79925068 rev/d
Perigee alt
628.7 km
Apogee alt
630.5 km
Semi-major
7,007.7 km
B*
2.5273e-4
RAAN
323.2258°
Arg perigee
172.1495°
Mean anomaly
187.9488°
Rev number
1,852

§ Raw data

KUIPER-005931 69278U 26118M   26263.15514200  .00001705  00000+0  25273-3 0  99912 69278  51.9013 323.2258 0001293 172.1495 187.9488 14.79925068 18524

JSON: /api/v1/satellites/69278 · /tle

For live sub-satellite position, see the globe view (requires WebGL).

§ Visibility from observer

Set your observer location to see the next 7 days of passes ≥ 10°. The values pass through the URL so the page stays shareable.

No JS? Fill the form by hand. The geolocation button needs JavaScript.